Home   Weather   Ancona   Past weeks

Flag for Italy Past Weather in Ancona, Italy — Yesterday and Last 2 Weeks

Now
91 °F

Passing clouds.


Feels Like: 89 °F
Forecast: 70 / 77 °F
Wind: 9 mph from Southeast

Location: Falconara

Current Time: Aug 19, 2017 at 7:15:28 pm

Latest Report: Aug 19, 2017 at 5:50 pm


Visibility: N/A

Pressure: 29.86 "Hg

Humidity: 30%

Dew Point: 55 °F

Location of AnconaLocation

Past Weather in Ancona — Graph

°F

Ancona Temperature Yesterday

Maximum temperature yesterday: 86 °F (at 10:50 am)
Minimum temperature yesterday: 68 °F (at 3:50 am)
Average temperature yesterday: 79 °F

High & Low Weather Summary for the Past Weeks

 TemperatureHumidityPressure
High104 °F (Aug 4, 5:50 pm)89% (Aug 10, 11:50 pm)30.12 "Hg (Aug 10, 11:50 pm)
Low64 °F (Aug 14, 2:50 am)14% (Aug 4, 5:50 pm)29.74 "Hg (Aug 6, 6:50 pm)
Average80 °F53%29.95 "Hg
* Reported Aug 4 5:50 pm — Aug 19 5:50 pm, Ancona. Weather by CustomWeather, © 2017

Note: Actual official high and low records may vary slightly from our data, if they occured in-between our weather recording intervals... More about our weather records

Advertising

Ancona Weather History for the Previous 24 Hours

Scroll right to see more
 ConditionsComfort  
Time TempWeatherWind HumidityBarometerVisibility
5:50 pm
Sat, Aug 19
91 °FPassing clouds.9 mph30%29.86 "HgN/A
4:50 pm91 °FScattered clouds.12 mph30%29.86 "HgN/A
3:50 pm93 °FPassing clouds.12 mph26%29.86 "HgN/A
2:50 pm93 °FPassing clouds.10 mph26%29.86 "HgN/A
1:50 pm91 °FPassing clouds.13 mph28%29.89 "HgN/A
12:50 pm91 °FPassing clouds.12 mph30%29.89 "HgN/A
11:50 am91 °FSunny.10 mph32%29.89 "Hg10 mi
10:50 am95 °FSunny.10 mph23%29.89 "Hg10 mi
9:50 am91 °FSunny.1 mph28%29.92 "Hg10 mi
8:50 am84 °FSunny.1 mph40%29.89 "Hg10 mi
7:50 am77 °FSunny.2 mph54%29.89 "Hg10 mi
6:50 am72 °FSunny.2 mph61%29.89 "Hg10 mi
5:50 am73 °FClear.2 mph57%29.89 "Hg10 mi
4:50 am75 °FClear.2 mph54%29.89 "Hg10 mi
3:50 am72 °FClear.1 mph65%29.89 "Hg10 mi
2:50 am72 °FClear.2 mph61%29.89 "Hg10 mi
1:50 am77 °FClear.2 mph51%29.89 "Hg10 mi
12:50 am77 °FClear.3 mph51%29.92 "Hg10 mi
11:50 pm
Fri, Aug 18
77 °FClear.5 mph51%29.92 "Hg10 mi
10:50 pm81 °FClear.8 mph42%29.92 "Hg10 mi
9:50 pm84 °FPassing clouds.6 mph33%29.92 "HgN/A
8:50 pm82 °FPassing clouds.3 mph42%29.92 "HgN/A
7:50 pm86 °FPassing clouds.5 mph40%29.92 "HgN/A
Weather by CustomWeather, © 2017

See weather overviewHow to use our weather pages